Regional Weather Roundup
Issued by NWS Cleveland, OH

Home | Current Version | Previous Version | Text Only | Print | Product List | Glossary Off
Versions: 1 2 3 4 5 6 7 8 9 10 11 12 13 14 15 16 17 18 19 20 21 22 23 24 25 26 27 28 29 30 31 32 33 34 35 36 37 38 39 40 41 42 43 44 45 46 47 48 49 50

000
ASUS41 KCLE 200000
RWRCLE
OHIO REGIONAL WEATHER ROUNDUP
NATIONAL WEATHER SERVICE WILMINGTON, OH
800 PM EDT TUE AUG 19 2014

NOTE: "FAIR" INDICATES FEW OR NO CLOUDS BELOW 12,000 FEET WITH NO
SIGNIFICANT WEATHER AND/OR OBSTRUCTIONS TO VISIBILITY.

OHZ001>008-015>018-024>027-034-035-043-044-200100-
   NORTHWEST OHIO

CITY           SKY/WX    TMP DP  RH WIND       PRES   REMARKS
DEFIANCE       TSTM      66  63  90 N9        29.79F VSB 1
FINDLAY        TSTM      73  63  70 W13G22    29.80R
TOLEDO EXPRESS CLOUDY    68  65  90 SW7       29.80R
TOLEDO METCALF CLOUDY    70  65  84 SW3       29.80F
LIMA           LGT RAIN  76  68  76 NW9       29.82R
$$

OHZ009>014-019>023-028>033-038-089-200100-
   NORTHEAST OHIO

CITY           SKY/WX    TMP DP  RH WIND       PRES   REMARKS
CLE-HOPKINS    MOCLDY    76  70  82 S5        29.82R
CLE-LAKEFRONT  PTCLDY    82  67  60 S6        29.79R
CUY CO. ARPT   CLOUDY    81  68  65 S8        29.81S
LORAIN-ELYRIA  MOCLDY    76  65  68 N26G35    29.82R
ASHTABULA      PTCLDY    76  66  71 SE3       29.83S
AKRON-CANTON   MOCLDY    79  66  64 S8        29.83F
WOOSTER        NOT AVBL
MANSFIELD      MOCLDY    76  67  73 CALM      29.83S THUNDER
YOUNGSTOWN     PTCLDY    77  62  59 S5        29.84S
$$

OHZ042-051>053-060>062-070>072-077>081-200100-
  SOUTHWEST OHIO

CITY           SKY/WX    TMP DP  RH WIND       PRES   REMARKS
CINC-COVINGTON MOCLDY    82  66  58 W5        29.84R
CINC-LUNKEN    PTCLDY    83  67  58 SW8       29.82R
HAMILTON       PTCLDY    82  69  64 SW5       29.83R
DAYTON         NOT AVBL
WRIGHT-PAT AFB CLEAR     82  68  63 W7        29.82R
DAYTON GENERAL MOCLDY    83  67  58 W6        29.83R
WILMINGTON     CLEAR     80  69  69 S3        29.83R
$$

OHZ036-037-039>041-045>050-054>059-063>069-073>076-082>088-200100-
  CENTRAL AND SOUTHEAST OHIO

CITY           SKY/WX    TMP DP  RH WIND       PRES   REMARKS
COLUMBUS       PTCLDY    87  66  49 SW9       29.81R
OSU AIRPORT    CLEAR     82  68  62 SW7       29.81S
BOLTON FIELD   NOT AVBL
RICKENBACK AFB NOT AVBL
NEWARK         CLEAR     81  71  71 SE5       29.82R
MARION         CLEAR     81  66  60 W6        29.81S
LANCASTER      CLEAR     82  71  69 S6        29.83R
ZANESVILLE     CLEAR     80  69  69 S6        29.83S
NEW PHILLY     CLEAR     77  71  82 CALM      29.84S
$$



USA.gov is the U.S. government's official web portal to all federal, state and local government web resources and services.